• In Belgium
  • List of Countries
  • For 7 days
  • Water Temperature
  • Satellite Maps
  • Weather Map
  • Weather Widgets
  • user-avatar
    Login

    Hourly Weather Begijnendijk

    Today, 22 February, Thursday

    Time Temperature Precipitation Wind Pressure Humidity
    00:00 -2°C° 0 mm 3 mps 766 mmHg 79%
    01:00 -3°C° 0 mm 4 mps 766 mmHg 79%
    02:00 -3°C° 0 mm 4 mps 765 mmHg 79%
    03:00 -3°C° 0 mm 4 mps 765 mmHg 80%
    04:00 -3°C° 0 mm 4 mps 765 mmHg 78%
    05:00 -3°C° 0 mm 4 mps 765 mmHg 77%
    06:00 -3°C° 0 mm 4 mps 765 mmHg 75%
    07:00 -2°C° 0 mm 5 mps 765 mmHg 69%
    08:00 -2°C° 0 mm 5 mps 765 mmHg 63%
    09:00 -2°C° 0 mm 6 mps 765 mmHg 56%
    10:00 -1°C° 0 mm 6 mps 765 mmHg 52%
    11:00 +1°C° 0 mm 6 mps 765 mmHg 48%
    12:00 +2°C° 0 mm 6 mps 765 mmHg 43%
    13:00 +3°C° 0 mm 6 mps 765 mmHg 44%
    14:00 +3°C° 0 mm 6 mps 764 mmHg 45%
    15:00 +3°C° 0 mm 6 mps 764 mmHg 46%
    16:00 +1°C° 0 mm 6 mps 764 mmHg 50%
    17:00 0°C° 0 mm 5 mps 764 mmHg 55%
    18:00 -1°C° 0 mm 4 mps 764 mmHg 60%
    19:00 -1°C° 0 mm 5 mps 765 mmHg 62%
    20:00 -2°C° 0 mm 5 mps 765 mmHg 64%
    21:00 -2°C° 0 mm 5 mps 765 mmHg 66%
    22:00 -3°C° 0 mm 4 mps 765 mmHg 66%
    23:00 -3°C° 0 mm 4 mps 765 mmHg 67%

    Tomorrow, 23 February, Friday

    Time Temperature Precipitation Wind Pressure Humidity
    00:00 -3°C° 0 mm 4 mps 765 mmHg 68%
    01:00 -3°C° 0 mm 4 mps 765 mmHg 67%
    02:00 -4°C° 0 mm 4 mps 765 mmHg 67%
    03:00 -4°C° 0 mm 4 mps 764 mmHg 67%
    04:00 -4°C° 0 mm 4 mps 764 mmHg 65%
    05:00 -4°C° 0 mm 4 mps 764 mmHg 64%
    06:00 -5°C° 0 mm 5 mps 764 mmHg 63%
    07:00 -4°C° 0 mm 5 mps 764 mmHg 58%
    08:00 -3°C° 0 mm 6 mps 764 mmHg 53%
    09:00 -2°C° 0 mm 7 mps 764 mmHg 47%
    10:00 -1°C° 0 mm 7 mps 764 mmHg 44%
    11:00 -1°C° 0 mm 7 mps 764 mmHg 40%
    12:00 0°C° 0 mm 7 mps 763 mmHg 37%
    13:00 +2°C° 0 mm 7 mps 763 mmHg 36%
    14:00 +2°C° 0 mm 7 mps 763 mmHg 36%
    15:00 +2°C° 0 mm 6 mps 762 mmHg 35%
    16:00 +1°C° 0 mm 6 mps 763 mmHg 38%
    17:00 -2°C° 0 mm 6 mps 763 mmHg 40%
    18:00 -2°C° 0 mm 5 mps 763 mmHg 42%
    19:00 -2°C° 0 mm 5 mps 763 mmHg 42%
    20:00 -4°C° 0 mm 5 mps 763 mmHg 41%
    21:00 -4°C° 0 mm 5 mps 763 mmHg 40%
    22:00 -4°C° 0 mm 5 mps 763 mmHg 41%
    23:00 -5°C° 0 mm 5 mps 763 mmHg 41%

    Day after tomorrow, 24 February, Saturday

    Time Temperature Precipitation Wind Pressure Humidity
    00:00 -5°C° 0 mm 5 mps 763 mmHg 41%
    01:00 -5°C° 0 mm 5 mps 763 mmHg 41%
    02:00 -5°C° 0 mm 5 mps 763 mmHg 42%
    03:00 -5°C° 0 mm 5 mps 763 mmHg 42%
    04:00 -5°C° 0 mm 6 mps 763 mmHg 41%
    05:00 -5°C° 0 mm 6 mps 763 mmHg 40%
    06:00 -5°C° 0 mm 6 mps 763 mmHg 40%
    07:00 -4°C° 0 mm 6 mps 763 mmHg 36%
    08:00 -3°C° 0 mm 7 mps 763 mmHg 33%
    09:00 -2°C° 0 mm 7 mps 764 mmHg 29%
    10:00 -1°C° 0 mm 7 mps 764 mmHg 28%
    11:00 0°C° 0 mm 7 mps 763 mmHg 26%
    12:00 +1°C° 0 mm 8 mps 763 mmHg 25%
    13:00 +2°C° 0 mm 8 mps 763 mmHg 27%
    14:00 +2°C° 0 mm 8 mps 763 mmHg 29%
    15:00 +2°C° 0 mm 8 mps 763 mmHg 31%
    16:00 +2°C° 0 mm 7 mps 763 mmHg 37%
    17:00 0°C° 0 mm 7 mps 764 mmHg 42%
    18:00 -2°C° 0 mm 7 mps 764 mmHg 47%
    19:00 -2°C° 0 mm 6 mps 764 mmHg 47%
    20:00 -3°C° 0 mm 6 mps 765 mmHg 47%
    21:00 -3°C° 0 mm 6 mps 765 mmHg 48%
    22:00 -4°C° 0 mm 6 mps 766 mmHg 47%
    23:00 -4°C° 0 mm 6 mps 766 mmHg 46%

    25 February, Sunday

    Time Temperature Precipitation Wind Pressure Humidity
    00:00 -5°C° 0 mm 6 mps 766 mmHg 45%
    01:00 -5°C° 0 mm 6 mps 766 mmHg 45%
    02:00 -5°C° 0 mm 6 mps 766 mmHg 44%
    03:00 -5°C° 0 mm 6 mps 766 mmHg 44%
    04:00 -5°C° 0 mm 6 mps 766 mmHg 44%
    05:00 -6°C° 0 mm 6 mps 766 mmHg 44%
    06:00 -6°C° 0 mm 6 mps 766 mmHg 44%
    07:00 -6°C° 0 mm 7 mps 767 mmHg 41%
    08:00 -6°C° 0 mm 7 mps 767 mmHg 38%
    09:00 -4°C° 0 mm 7 mps 767 mmHg 35%
    10:00 -3°C° 0 mm 7 mps 767 mmHg 31%
    11:00 -4°C° 0 mm 8 mps 767 mmHg 27%
    12:00 -2°C° 0 mm 8 mps 767 mmHg 24%
    13:00 -2°C° 0 mm 8 mps 767 mmHg 23%
    14:00 -2°C° 0 mm 8 mps 767 mmHg 22%
    15:00 -1°C° 0 mm 7 mps 766 mmHg 21%
    16:00 -3°C° 0 mm 7 mps 767 mmHg 24%
    17:00 -4°C° 0 mm 6 mps 767 mmHg 27%
    18:00 -5°C° 0 mm 6 mps 767 mmHg 31%
    19:00 -5°C° 0 mm 6 mps 768 mmHg 34%
    20:00 -6°C° 0 mm 6 mps 768 mmHg 37%
    21:00 -6°C° 0 mm 6 mps 768 mmHg 40%
    22:00 -6°C° 0 mm 6 mps 768 mmHg 42%
    23:00 -6°C° 0 mm 5 mps 768 mmHg 43%

    26 February, Monday

    Time Temperature Precipitation Wind Pressure Humidity
    00:00 -6°C° 0 mm 5 mps 768 mmHg 45%
    01:00 -6°C° 0 mm 5 mps 768 mmHg 45%
    02:00 -7°C° 0 mm 5 mps 768 mmHg 46%
    03:00 -7°C° 0 mm 5 mps 768 mmHg 47%
    04:00 -7°C° 0 mm 5 mps 768 mmHg 46%
    05:00 -8°C° 0 mm 6 mps 768 mmHg 46%
    06:00 -8°C° 0 mm 6 mps 768 mmHg 45%
    07:00 -8°C° 0 mm 6 mps 768 mmHg 44%
    08:00 -7°C° 0 mm 7 mps 768 mmHg 43%
    09:00 -7°C° 0 mm 7 mps 768 mmHg 41%
    10:00 -6°C° 0 mm 7 mps 767 mmHg 39%
    11:00 -6°C° 0 mm 7 mps 767 mmHg 36%
    12:00 -4°C° 0 mm 7 mps 767 mmHg 33%
    13:00 -4°C° 0 mm 7 mps 766 mmHg 33%
    14:00 -4°C° 0 mm 7 mps 766 mmHg 33%
    15:00 -4°C° 0 mm 7 mps 765 mmHg 32%
    16:00 -5°C° 0 mm 6 mps 765 mmHg 35%
    17:00 -6°C° 0 mm 5 mps 765 mmHg 38%
    18:00 -5°C° 0 mm 4 mps 765 mmHg 40%
    19:00 -7°C° 0 mm 4 mps 765 mmHg 41%
    20:00 -7°C° 0 mm 4 mps 765 mmHg 42%
    21:00 -7°C° 0 mm 4 mps 765 mmHg 43%
    22:00 -7°C° 0 mm 4 mps 765 mmHg 43%
    23:00 -7°C° 0 mm 4 mps 765 mmHg 43%

    27 February, Tuesday

    Time Temperature Precipitation Wind Pressure Humidity
    00:00 -8°C° 0 mm 4 mps 765 mmHg 44%
    01:00 -7°C° 0 mm 3 mps 764 mmHg 44%
    02:00 -7°C° 0 mm 3 mps 764 mmHg 45%
    03:00 -7°C° 0 mm 3 mps 764 mmHg 46%
    04:00 -7°C° 0 mm 3 mps 764 mmHg 46%
    05:00 -8°C° 0 mm 3 mps 764 mmHg 47%
    06:00 -8°C° 0 mm 3 mps 763 mmHg 48%
    07:00 -8°C° 0 mm 4 mps 763 mmHg 44%
    08:00 -8°C° 0 mm 4 mps 763 mmHg 39%
    09:00 -7°C° 0 mm 5 mps 763 mmHg 35%
    10:00 -6°C° 0 mm 5 mps 763 mmHg 32%
    11:00 -5°C° 0 mm 5 mps 763 mmHg 28%
    12:00 -4°C° 0 mm 5 mps 763 mmHg 25%
    13:00 -3°C° 0 mm 4 mps 763 mmHg 25%
    14:00 -3°C° 0 mm 4 mps 762 mmHg 25%
    15:00 -3°C° 0 mm 4 mps 762 mmHg 25%
    16:00 -3°C° 0 mm 4 mps 762 mmHg 29%
    17:00 -4°C° 0 mm 3 mps 762 mmHg 33%
    18:00 -4°C° 0 mm 2 mps 763 mmHg 36%
    19:00 -5°C° 0 mm 2 mps 763 mmHg 39%
    20:00 -5°C° 0 mm 2 mps 763 mmHg 42%
    21:00 -5°C° 0 mm 2 mps 763 mmHg 45%
    22:00 -5°C° 0 mm 2 mps 764 mmHg 46%
    23:00 -5°C° 0 mm 2 mps 764 mmHg 47%
    Show more